CW6451 Weather Reports


Display with metric or nautical units.
time (UTC)temp
F
wind
direction
speed
MPH
gust
MPH
rain 1hr
in
rain 24hr
in
rain mn
in
humidity
%
barometer
mb
20260902210047 70 165 0.0 7.0 0.00 0.01 0.00 77 1020.9
20260902204546 71 0 1.0 5.0 0.00 0.02 0.00 76 1020.9
20260902203103 71 0 1.0 8.0 0.00 0.02 0.00 74 1021.0
20260902201549 72 154 2.0 8.0 0.00 0.02 0.00 71 1020.9
20260902200056 75 173 3.0 9.0 0.00 0.02 0.00 64 1021.2
20260902194543 76 94 2.0 7.0 0.00 0.05 0.00 62 1021.4
20260902193103 76 175 3.0 7.0 0.00 0.05 0.00 66 1021.3
20260902191605 75 174 2.0 11.0 0.00 0.05 0.00 65 1021.4
20260902190056 75 164 1.0 8.0 0.00 0.05 0.00 64 1021.4
20260902184547 74 0 1.0 9.0 0.00 0.07 0.00 65 1021.2
20260902183113 74 162 2.0 8.0 0.00 0.07 0.00 65 1021.2
20260902181547 74 155 2.0 8.0 0.00 0.07 0.00 63 1021.2
20260902180049 73 219 1.0 10.0 0.00 0.07 0.00 64 1021.4
20260902174556 73 0 1.0 7.0 0.00 0.07 0.00 64 1021.3
20260902173056 73 149 2.0 8.0 0.00 0.07 0.00 61 1021.5
20260902171558 74 135 2.0 9.0 0.00 0.07 0.00 65 1021.6
20260902170047 74 134 2.0 7.0 0.00 0.07 0.00 66 1021.6
20260902164545 74 136 1.0 8.0 0.00 0.07 0.00 63 1021.6
20260902163051 73 169 2.0 10.0 0.00 0.07 0.00 67 1021.5
20260902161547 74 117 2.0 8.0 0.00 0.07 0.00 69 1021.7
20260902160049 73 124 1.0 8.0 0.00 0.07 0.00 68 1022.0
20260902154600 73 94 1.0 5.0 0.00 0.08 0.00 73 1022.1
20260902153050 72 202 1.0 8.0 0.00 0.08 0.00 71 1022.0
20260902151546 72 132 1.0 7.0 0.00 0.08 0.00 70 1022.1
20260902150047 71 163 1.0 6.0 0.00 0.08 0.00 74 1022.3
20260902144550 70 198 1.0 6.0 0.00 0.19 0.00 74 1022.3
20260902143044 70 124 1.0 6.0 0.00 0.19 0.00 76 1022.1
20260902141542 69 132 1.0 6.0 0.00 0.19 0.00 80 1021.9
20260902140053 68 173 0.0 9.0 0.00 0.19 0.00 82 1021.7
20260902134550 68 0 1.0 9.0 0.00 0.35 0.00 85 1021.1
20260902133044 67 0 2.0 9.0 0.00 0.35 0.00 85 1020.8
20260902131546 67 82 2.0 8.0 0.00 0.35 0.00 87 1021.0
20260902130051 66 82 1.0 9.0 0.00 0.35 0.00 88 1021.4
20260902124544 65 0 1.0 9.0 0.00 0.37 0.00 89 1021.4
20260902123043 65 64 0.0 9.0 0.00 0.37 0.00 89 1021.4
20260902121550 64 0 1.0 9.0 0.00 0.37 0.00 92 1021.7
20260902120043 63 76 2.0 6.0 0.00 0.37 0.00 93 1021.7
20260902114616 63 0 0.0 5.0 0.00 0.37 0.00 96 1021.8
20260902113055 62 13 1.0 4.0 0.00 0.37 0.00 97 1021.7
20260902111548 61 63 0.0 4.0 0.00 0.37 0.00 98 1021.5
20260902110046 61 0 1.0 5.0 0.00 0.37 0.00 98 1021.4
20260902104544 61 16 1.0 4.0 0.00 0.37 0.00 98 1021.1
20260902103102 61 77 1.0 4.0 0.00 0.37 0.00 98 1021.1
20260902101544 61 0 0.0 5.0 0.00 0.37 0.00 98 1020.8
20260902100105 61 89 0.0 6.0 0.00 0.37 0.00 98 1020.5
20260902094601 61 55 1.0 4.0 0.00 0.37 0.00 98 1020.5
20260902093106 61 0 0.0 6.0 0.00 0.37 0.00 98 1020.4
20260902091544 61 0 0.0 8.0 0.00 0.37 0.00 98 1020.3
20260902090050 61 0 0.0 4.0 0.00 0.37 0.00 97 1020.2
20260902084547 61 80 1.0 4.0 0.00 0.37 0.00 97 1020.4
20260902083043 61 53 2.0 5.0 0.00 0.37 0.00 97 1020.4
20260902081553 60 0 0.0 3.0 0.00 0.37 0.00 97 1020.2
20260902080050 60 38 1.0 4.0 0.00 0.37 0.00 97 1020.0
20260902074545 60 21 3.0 5.0 0.00 0.37 0.00 97 1020.2
20260902073104 60 32 2.0 6.0 0.00 0.37 0.00 97 1020.0
20260902071550 61 34 0.0 3.0 0.00 0.37 0.00 98 1020.1
20260902070051 60 32 2.0 5.0 0.00 0.37 0.00 98 1019.9
20260902064545 60 26 1.0 3.0 0.00 0.37 0.00 98 1019.8
20260902063052 60 28 1.0 4.0 0.00 0.37 0.00 98 1019.9
20260902061559 60 31 1.0 4.0 0.00 0.37 0.00 98 1019.8
20260902060054 60 37 1.0 3.0 0.00 0.37 0.00 99 1019.8
20260902054553 59 34 1.0 4.0 0.00 0.37 0.00 99 1019.7
20260902053047 59 53 0.0 3.0 0.00 0.37 0.00 99 1019.5
20260902051555 58 0 0.0 5.0 0.00 0.37 0.00 98 1019.6
20260902050054 58 57 0.0 3.0 0.00 0.37 0.00 98 1019.5
20260902044550 59 0 0.0 3.0 0.00 0.37 0.00 98 1019.4
20260902043051 59 61 1.0 2.0 0.00 0.37 0.00 98 1019.5
20260902041602 60 0 0.0 1.0 0.00 0.37 0.00 98 1019.6
20260902040046 60 0 0.0 2.0 0.00 0.37 0.00 98 1019.5
20260902034550 60 0 0.0 2.0 0.00 0.37 0.37 98 1019.5
20260902033044 60 0 0.0 1.0 0.00 0.37 0.37 98 1019.3
20260902031614 60 0 0.0 2.0 0.00 0.37 0.37 98 1019.3
20260902030056 60 0 0.0 3.0 0.00 0.37 0.37 98 1019.3
20260902024553 60 0 0.0 3.0 0.00 0.37 0.37 98 1019.3
20260902023056 60 29 1.0 4.0 0.00 0.37 0.37 98 1019.3
20260902021549 60 71 0.0 2.0 0.00 0.37 0.37 98 1019.1
20260902020047 60 31 1.0 4.0 0.00 0.37 0.37 98 1019.1
20260902014544 60 111 0.0 1.0 0.00 0.37 0.37 98 1018.5
20260902013043 60 0 0.0 2.0 0.00 0.37 0.37 98 1018.7
20260902011550 60 0 0.0 4.0 0.00 0.37 0.37 98 1018.8
20260902010045 60 0 0.0 2.0 0.01 0.37 0.37 98 1018.7
20260902004549 60 0 0.0 4.0 0.01 0.37 0.37 98 1018.9
20260902003052 60 0 0.0 3.0 0.01 0.37 0.37 98 1018.7
20260902001556 60 0 0.0 4.0 0.01 0.37 0.37 98 1018.8
20260902000043 60 96 0.0 4.0 0.00 0.36 0.36 98 1018.5
20260901234544 60 0 1.0 5.0 0.00 0.36 0.36 98 1018.3
20260901233059 60 0 0.0 7.0 0.00 0.36 0.36 98 1018.3
20260901231544 60 168 1.0 5.0 0.00 0.36 0.36 99 1018.5
20260901230057 59 0 1.0 10.0 0.00 0.36 0.36 98 1018.4
20260901224552 59 0 1.0 7.0 0.00 0.36 0.36 98 1018.4
20260901223054 59 79 1.0 7.0 0.00 0.36 0.36 98 1018.2
20260901221554 59 0 1.0 7.0 0.00 0.36 0.36 98 1018.2
20260901220047 59 69 1.0 9.0 0.00 0.36 0.36 98 1018.4
20260901214550 59 57 1.0 7.0 0.01 0.36 0.36 98 1018.5
20260901213110 59 172 1.0 7.0 0.01 0.36 0.36 97 1018.6
20260901211550 59 98 1.0 7.0 0.01 0.36 0.36 97 1018.4